FW0683 Weather Reports


time (UTC)temp
F
wind
direction
speed
knots
gust
knots
rain 1hr
in
rain 24hr
in
rain mn
in
humidity
%
barometer
mb
20260904004529 63 346 0.0 0.0 0.00 0.19 0.19 93 1016.0
20260904003029 64 346 0.0 0.0 0.00 0.19 0.19 93 1016.1
20260904001531 64 346 0.0 0.0 0.00 0.19 0.19 92 1015.7
20260904000028 64 346 0.0 0.0 0.00 0.19 0.19 92 1015.5
20260903234526 65 345 0.0 0.0 0.00 0.19 0.19 92 1015.4
20260903233025 66 346 0.0 0.0 0.00 0.19 0.19 91 1015.4
20260903231527 66 345 0.0 0.0 0.00 0.19 0.19 91 1015.5
20260903230027 67 346 0.0 0.0 0.00 0.19 0.19 90 1015.3
20260903224522 68 346 0.0 0.0 0.00 0.19 0.19 90 1015.6
20260903223025 68 346 0.0 0.0 0.00 0.19 0.19 89 1015.8
20260903221524 69 345 0.0 0.0 0.00 0.19 0.19 88 1015.7
20260903220020 69 108 0.0 0.0 0.00 0.19 0.19 87 1015.7
20260903214518 70 110 0.0 0.0 0.00 0.19 0.19 87 1015.8
20260903213018 70 110 0.0 0.0 0.00 0.19 0.19 85 1015.9
20260903211517 71 110 0.0 0.0 0.00 0.19 0.19 85 1016.0
20260903210017 71 110 0.0 0.0 0.00 0.19 0.19 86 1015.9
20260903204517 71 88 0.0 0.0 0.00 0.19 0.19 86 1015.7
20260903203013 70 95 0.0 0.0 0.00 0.19 0.19 87 1016.0
20260903201512 70 101 0.0 0.0 0.00 0.19 0.19 87 1016.0
20260903200011 70 101 0.0 0.0 0.00 0.19 0.19 88 1016.2
20260903194509 70 101 0.0 0.0 0.00 0.19 0.19 87 1016.4
20260903193008 70 101 0.0 0.0 0.00 0.19 0.19 87 1016.4
20260903191508 70 101 0.0 0.0 0.00 0.19 0.19 88 1016.4
20260903190007 70 101 0.0 0.0 0.00 0.19 0.19 87 1016.4
20260903184505 70 36 0.0 0.0 0.00 0.19 0.19 86 1016.6
20260903183004 70 44 0.0 0.0 0.00 0.19 0.19 88 1016.7
20260903181502 69 70 0.0 0.0 0.00 0.19 0.19 88 1016.9
20260903180001 69 82 0.0 0.0 0.00 0.19 0.19 87 1017.1
20260903174559 69 41 0.0 0.0 0.00 0.19 0.19 91 1017.0
20260903173100 68 41 0.0 0.0 0.00 0.19 0.19 90 1016.9
20260903171557 67 45 0.0 0.0 0.00 0.19 0.19 91 1016.9
20260903170056 67 45 0.0 0.0 0.00 0.19 0.19 90 1017.0
20260903164554 67 37 0.0 0.0 0.00 0.19 0.19 91 1017.1
20260903163052 67 52 0.0 0.0 0.00 0.19 0.19 91 1017.1
20260903161552 67 93 0.0 0.0 0.00 0.19 0.19 92 1017.1
20260903160048 66 106 0.0 0.0 0.00 0.19 0.19 92 1017.4
20260903154545 66 34 0.0 0.0 0.00 0.19 0.19 93 1017.9
20260903153044 66 34 0.0 0.0 0.00 0.19 0.19 93 1018.2
20260903151546 66 34 0.0 0.0 0.00 0.19 0.19 93 1018.1
20260903144539 65 62 0.0 0.0 0.00 0.19 0.19 94 1018.4
20260903143036 64 62 0.0 0.0 0.00 0.19 0.19 94 1018.5
20260903141540 64 65 0.0 0.0 0.00 0.19 0.19 94 1018.7
20260903140040 63 65 0.0 0.0 0.00 0.19 0.19 94 1018.8
20260903134533 63 65 0.0 0.0 0.01 0.19 0.19 94 1018.6
20260903133035 63 63 0.0 0.0 0.01 0.19 0.19 94 1018.9
20260903131531 63 63 0.0 0.0 0.01 0.19 0.19 94 1018.9
20260903130031 63 85 0.0 0.0 0.01 0.19 0.19 94 1018.9
20260903124533 62 85 0.0 0.0 0.01 0.18 0.18 94 1019.2
20260903123033 62 85 0.0 0.0 0.02 0.18 0.18 94 1019.4
20260903121528 62 85 0.0 0.0 0.02 0.18 0.18 94 1019.5
20260903120025 62 85 0.0 0.0 0.02 0.18 0.18 94 1019.6
20260903114524 62 85 0.0 0.0 0.02 0.17 0.17 94 1019.9
20260903113026 62 85 0.0 0.0 0.02 0.16 0.16 94 1019.8
20260903111523 62 85 0.0 0.0 0.02 0.16 0.16 94 1019.9
20260903110022 62 85 0.0 0.0 0.03 0.16 0.16 94 1019.7
20260903104522 62 86 0.0 0.0 0.03 0.15 0.15 93 1019.7
20260903103022 62 352 0.0 0.0 0.03 0.14 0.14 93 1019.7
20260903101521 62 352 0.0 0.0 0.05 0.14 0.14 93 1019.8
20260903100027 62 352 0.0 0.0 0.07 0.13 0.13 93 1019.7
20260903094520 62 352 0.0 0.0 0.12 0.12 0.12 93 1020.0
20260903093020 62 352 0.0 0.0 0.11 0.11 0.11 92 1020.0
20260903091520 62 352 0.0 0.0 0.09 0.09 0.09 92 1020.3
20260903090019 63 352 0.0 0.0 0.06 0.06 0.06 91 1020.5
20260903084537 63 352 0.0 0.0 0.00 0.00 0.00 90 1020.3
20260903083017 63 95 0.0 0.0 0.00 0.00 0.00 90 1019.6
20260903081515 63 91 0.0 0.0 0.00 0.00 0.00 91 1019.8
20260903080013 63 101 0.0 0.0 0.00 0.00 0.00 92 1019.9
20260903074511 62 101 0.0 0.0 0.00 0.00 0.00 93 1020.3
20260903073009 62 101 0.0 0.0 0.00 0.00 0.00 93 1020.2
20260903071509 62 101 0.0 0.0 0.00 0.00 0.00 93 1020.5
20260903070007 62 101 0.0 0.0 0.00 0.00 0.00 93 1020.6
20260903064504 62 70 0.0 0.0 0.00 0.00 0.00 93 1021.1
20260903063001 62 70 0.0 0.0 0.00 0.00 0.00 93 1021.7
20260903061600 62 70 0.0 0.0 0.00 0.00 0.00 93 1022.3
20260903060058 62 70 0.0 0.0 0.00 0.00 0.00 93 1022.5
20260903054556 62 70 0.0 0.0 0.00 0.00 0.00 93 1022.4
20260903053113 62 70 0.0 0.0 0.00 0.00 0.00 93 1022.6
20260903051554 62 70 0.0 0.0 0.00 0.00 0.00 93 1022.6
20260903044559 62 70 0.0 0.0 0.00 0.00 0.00 93 1022.7
20260903043106 62 70 0.0 0.0 0.00 0.00 0.00 93 1022.7
20260903041554 62 70 0.0 0.0 0.00 0.00 0.00 93 1022.9
20260903040049 62 70 0.0 0.0 0.00 0.00 0.00 93 1023.0
20260903034544 62 70 0.0 0.0 0.00 0.00 0.00 93 1023.2
20260903033043 62 70 0.0 0.0 0.00 0.00 0.00 93 1023.9
20260903031543 62 70 0.0 0.0 0.00 0.00 0.00 93 1023.7
20260903030043 62 70 0.0 0.0 0.00 0.00 0.00 93 1023.7
20260903024541 62 70 0.0 0.0 0.00 0.00 0.00 93 1023.6
20260903023040 62 70 0.0 0.0 0.00 0.00 0.00 93 1023.6
20260903021548 62 70 0.0 0.0 0.00 0.00 0.00 92 1023.7
20260903020039 62 70 0.0 0.0 0.00 0.00 0.00 92 1024.0
20260903014538 62 70 0.0 0.0 0.00 0.00 0.00 92 1024.3
20260903013037 62 70 0.0 0.0 0.00 0.00 0.00 92 1023.8
20260903011538 62 70 0.0 0.0 0.00 0.00 0.00 92 1023.9
20260903010037 62 99 0.0 0.0 0.00 0.00 0.00 91 1023.8